�N����,����,�~����,�C��,���x,�C��,����,���ϕ���,�ő�u�ԕ���,�ő厞����,���˗�,�I�_���x,�n�����x,�ő啗���N��,DTYPE
"18/08/17","00:10",0.0,23.6,82.7,1004.1,338.3,1.8,2.9,356.0,0.00,20.5,26.1,"00:04:32",1
"18/08/17","00:20",0.0,23.7,82.2,1004.1,337.5,2.0,4.0,331.4,0.00,20.5,25.9,"00:11:36",1
"18/08/17","00:30",0.0,23.9,80.5,1004.1,325.9,2.1,4.7,348.7,0.00,20.4,26.0,"00:21:20",1
"18/08/17","00:40",0.0,23.6,80.9,1004.1,327.7,1.7,3.5,343.1,0.00,20.2,26.0,"00:31:20",1
"18/08/17","00:50",0.0,23.5,81.1,1004.1,328.6,1.8,3.2,325.1,0.00,20.1,25.9,"00:48:40",1
"18/08/17","01:00",0.0,23.7,78.7,1004.1,331.1,2.1,6.2,333.7,0.00,19.8,25.9,"00:50:32",1
"18/08/17","01:10",0.0,23.4,79.9,1004.1,326.5,1.5,3.6,337.8,0.00,19.8,26.0,"01:08:32",1
"18/08/17","01:20",0.0,22.8,81.7,1003.8,324.9,1.7,3.1,338.7,0.00,19.5,25.6,"01:11:12",1
"18/08/17","01:30",0.0,22.7,82.4,1004.1,320.7,1.3,2.6,342.1,0.00,19.6,25.6,"01:22:56",1
"18/08/17","01:40",0.0,22.4,83.8,1003.8,317.9,1.1,2.0,324.8,0.00,19.6,25.5,"01:37:44",1
"18/08/17","01:50",0.0,22.0,85.8,1004.1,341.7,1.0,2.6,336.5,0.00,19.6,25.7,"01:48:16",1
"18/08/17","02:00",0.0,21.5,87.2,1003.8,312.0,1.1,2.0,333.7,0.00,19.3,25.7,"01:56:48",1
"18/08/17","02:10",0.0,21.3,88.2,1003.6,297.0,1.0,2.2,322.5,0.00,19.3,25.3,"02:00:40",1
"18/08/17","02:20",0.0,21.0,88.3,1003.8,310.7,0.6,2.4,328.2,0.00,19.0,25.4,"02:13:20",1
"18/08/17","02:30",0.0,20.8,88.9,1003.8,333.5,2.0,3.7,337.8,0.00,18.9,25.4,"02:20:02",1
"18/08/17","02:40",0.0,21.4,85.3,1004.3,332.2,2.0,3.4,338.8,0.00,18.9,25.3,"02:33:28",1
"18/08/17","02:50",0.0,21.6,82.9,1004.3,332.4,1.5,2.9,329.4,0.00,18.6,25.2,"02:43:36",1
"18/08/17","03:00",0.0,21.6,82.9,1004.3,330.9,1.6,3.5,315.6,0.00,18.6,25.1,"02:56:16",1
"18/08/17","03:10",0.0,21.7,80.7,1004.1,335.5,1.8,3.7,341.2,0.00,18.3,24.9,"03:01:04",1
"18/08/17","03:20",0.0,21.5,82.1,1004.1,334.3,1.8,3.2,342.4,0.00,18.4,25.0,"03:14:40",1
"18/08/17","03:30",0.0,21.4,82.0,1003.8,333.4,2.2,3.7,338.6,0.00,18.2,24.7,"03:29:36",1
"18/08/17","03:40",0.0,21.5,81.3,1003.8,333.6,2.3,4.2,334.2,0.00,18.2,25.0,"03:35:44",1
"18/08/17","03:50",0.0,21.4,81.9,1003.6,334.5,2.2,3.2,331.8,0.00,18.2,24.7,"03:48:48",1
"18/08/17","04:00",0.0,21.6,81.9,1003.8,333.8,2.8,5.5,335.8,0.00,18.4,24.7,"03:53:12",1
"18/08/17","04:10",0.0,21.5,81.8,1003.8,336.3,2.5,5.0,338.5,0.00,18.3,24.9,"04:00:08",1
"18/08/17","04:20",0.0,21.4,82.2,1004.1,334.8,2.1,3.4,315.4,0.00,18.3,24.4,"04:12:48",1
"18/08/17","04:30",0.0,21.3,82.6,1003.6,330.9,2.1,3.6,347.0,0.00,18.3,24.4,"04:23:36",1
"18/08/17","04:40",0.0,21.0,82.8,1003.6,264.7,0.6,2.4,331.4,0.00,18.0,24.6,"04:30:24",1
"18/08/17","04:50",0.0,20.7,84.1,1004.1,297.7,0.7,2.4,329.4,0.00,18.0,24.5,"04:49:44",1
"18/08/17","05:00",0.0,20.3,86.5,1004.3,337.4,1.5,2.5,322.5,0.00,18.0,24.3,"04:52:32",1
"18/08/17","05:10",0.0,20.1,87.7,1004.1,344.3,1.2,2.2,329.8,0.00,18.0,24.3,"05:01:20",1
"18/08/17","05:20",0.0,19.9,88.7,1004.3,342.2,1.2,1.9,358.1,0.00,18.0,24.3,"05:10:08",1
"18/08/17","05:30",0.0,19.5,89.2,1004.5,329.3,1.0,1.9,347.6,0.00,17.7,24.2,"05:20:08",1
"18/08/17","05:40",0.0,19.4,90.4,1004.8,305.8,1.1,1.8,318.7,0.00,17.8,24.0,"05:37:20",1
"18/08/17","05:50",0.0,19.6,91.2,1004.8,331.6,1.3,2.1,337.4,0.00,18.2,23.9,"05:42:48",1
"18/08/17","06:00",0.0,19.6,91.1,1004.5,306.5,1.1,1.9,314.9,0.00,18.1,23.9,"05:51:44",1
"18/08/17","06:10",0.0,19.9,91.5,1004.8,330.3,1.2,1.8,334.0,0.00,18.5,24.1,"06:02:40",1
"18/08/17","06:20",0.0,20.3,91.0,1005.0,324.4,1.6,2.2,323.9,0.01,18.8,23.9,"06:12:08",1
"18/08/17","06:30",0.0,21.0,89.6,1004.8,325.6,1.3,2.8,326.2,0.02,19.3,24.0,"06:21:20",1
"18/08/17","06:40",0.0,21.6,88.4,1005.0,295.9,0.7,1.3,323.0,0.02,19.6,24.1,"06:37:36",1
"18/08/17","06:50",0.0,22.5,85.0,1004.8,343.5,1.0,2.4,2.5,0.04,19.9,24.1,"06:42:00",1
"18/08/17","07:00",0.0,23.1,78.4,1005.0,347.6,1.0,2.6,304.3,0.06,19.2,24.0,"06:59:36",1
"18/08/17","07:10",0.0,23.6,75.6,1005.2,336.3,1.7,3.3,354.2,0.09,19.1,24.0,"07:08:24",1
"18/08/17","07:20",0.0,23.8,73.4,1005.5,339.5,2.3,4.2,345.1,0.10,18.8,24.1,"07:11:36",1
"18/08/17","07:30",0.0,24.0,72.6,1005.0,340.8,1.8,4.3,342.8,0.11,18.8,24.2,"07:21:44",1
"18/08/17","07:40",0.0,24.4,69.9,1005.2,324.6,1.1,3.6,336.5,0.14,18.6,24.4,"07:37:28",1
"18/08/17","07:50",0.0,24.4,71.4,1004.8,329.0,1.3,2.8,339.1,0.11,18.9,24.5,"07:45:20",1
"18/08/17","08:00",0.0,24.3,70.5,1004.5,328.6,1.6,3.5,346.8,0.12,18.6,24.4,"07:53:12",1
"18/08/17","08:10",0.0,24.7,68.6,1004.8,352.8,1.3,2.9,84.8,0.17,18.6,24.6,"08:08:48",1
"18/08/17","08:20",0.0,24.8,65.5,1004.8,8.2,1.7,3.9,6.4,0.25,17.9,24.7,"08:16:00",1
"18/08/17","08:30",0.0,25.0,66.1,1004.5,344.5,2.6,6.7,322.0,0.30,18.3,24.9,"08:20:02",1
"18/08/17","08:40",0.0,25.0,65.7,1004.8,335.5,3.4,8.0,344.9,0.33,18.2,24.9,"08:32:32",1
"18/08/17","08:50",0.0,25.3,65.2,1004.5,341.7,2.7,6.2,328.6,0.32,18.3,25.1,"08:42:00",1
"18/08/17","09:00",0.0,25.9,63.8,1004.1,12.8,2.0,4.1,322.2,0.35,18.6,25.4,"08:50:08",1
"18/08/17","09:10",0.0,26.3,62.2,1004.3,1.3,2.1,4.8,347.7,0.38,18.5,25.5,"09:01:44",1
"18/08/17","09:20",0.0,25.5,61.3,1004.3,4.1,2.1,4.5,336.3,0.32,17.5,25.7,"09:11:04",1
"18/08/17","09:30",0.0,26.1,59.2,1003.8,9.9,2.0,5.2,348.7,0.41,17.6,25.9,"09:27:52",1
"18/08/17","09:40",0.0,26.0,57.9,1003.8,21.0,1.7,4.7,351.6,0.34,17.1,26.0,"09:39:20",1
"18/08/17","09:50",0.0,26.7,58.5,1003.8,15.7,1.8,4.0,357.9,0.32,17.9,26.0,"09:40:40",1
"18/08/17","10:00",0.0,26.3,54.9,1003.6,7.4,3.2,8.0,319.0,0.48,16.6,26.2,"09:58:08",1
"18/08/17","10:10",0.0,27.3,53.0,1004.3,12.6,2.2,5.1,351.2,0.55,16.9,26.5,"10:01:28",1
"18/08/17","10:20",0.0,27.6,51.8,1004.3,358.9,2.2,4.3,21.7,0.53,16.8,26.8,"10:12:48",1
"18/08/17","10:30",0.0,26.9,55.0,1004.5,346.2,3.1,8.5,342.9,0.48,17.1,26.9,"10:24:56",1
"18/08/17","10:40",0.0,27.2,53.2,1004.1,350.7,3.0,6.3,341.2,0.54,16.9,27.1,"10:33:44",1
"18/08/17","10:50",0.0,27.1,50.8,1004.5,26.9,2.7,7.0,1.4,0.52,16.1,27.3,"10:45:12",1
"18/08/17","11:00",0.0,26.7,50.7,1003.8,353.8,3.7,8.0,331.2,0.54,15.7,27.4,"10:57:04",1
"18/08/17","11:10",0.0,26.7,49.8,1004.3,25.4,2.6,6.6,32.3,0.56,15.4,27.8,"11:07:52",1
"18/08/17","11:20",0.0,27.4,51.6,1003.8,22.9,2.5,7.3,334.3,0.56,16.6,27.8,"11:14:48",1
"18/08/17","11:30",0.0,27.0,49.9,1003.8,12.1,2.7,6.0,26.3,0.50,15.7,27.9,"11:28:16",1
"18/08/17","11:40",0.0,27.1,49.1,1004.1,13.9,2.3,6.8,351.5,0.56,15.5,28.2,"11:39:28",1
"18/08/17","11:50",0.0,27.4,49.7,1003.8,20.0,2.1,4.3,349.8,0.56,16.0,28.2,"11:45:36",1
"18/08/17","12:00",0.0,27.8,48.6,1003.8,21.6,2.8,7.2,36.7,0.57,16.0,28.2,"11:56:48",1
"18/08/17","12:10",0.0,27.3,48.2,1003.8,359.1,2.8,6.6,345.0,0.60,15.4,28.6,"12:09:28",1
"18/08/17","12:20",0.0,27.4,47.5,1003.8,11.5,2.2,6.3,342.5,0.61,15.3,28.7,"12:17:36",1
"18/08/17","12:30",0.0,26.5,49.3,1003.6,5.4,3.2,10.4,339.7,0.52,15.1,28.8,"12:27:12",1
"18/08/17","12:40",0.0,26.7,49.0,1003.6,359.6,2.3,5.8,351.1,0.40,15.1,29.0,"12:35:12",1
"18/08/17","12:50",0.0,26.8,49.2,1003.1,346.6,2.7,6.3,343.3,0.40,15.3,29.0,"12:48:16",1
"18/08/17","13:00",0.0,26.8,46.1,1003.4,345.0,2.5,4.5,344.6,0.41,14.3,29.0,"12:54:56",1
"18/08/17","13:10",0.0,27.0,45.2,1002.9,2.0,2.2,5.8,353.3,0.44,14.2,28.7,"13:06:00",1
"18/08/17","13:20",0.0,27.5,44.0,1002.9,13.5,2.3,5.2,312.7,0.58,14.2,29.1,"13:16:00",1
"18/08/17","13:30",0.0,27.8,43.1,1003.1,350.5,2.3,7.4,336.4,0.57,14.2,29.3,"13:21:28",1
"18/08/17","13:40",0.0,27.6,43.4,1003.4,24.0,2.8,5.8,43.9,0.51,14.1,29.1,"13:32:00",1
"18/08/17","13:50",0.0,28.0,45.8,1003.1,344.4,2.3,4.8,345.8,0.52,15.3,29.2,"13:46:08",1
"18/08/17","14:00",0.0,27.2,42.9,1003.1,9.9,3.0,5.5,24.6,0.47,13.5,29.5,"13:54:24",1
"18/08/17","14:10",0.0,27.9,43.9,1003.4,14.6,2.7,6.0,16.9,0.56,14.5,29.4,"14:00:40",1
"18/08/17","14:20",0.0,28.2,41.3,1002.9,1.8,2.7,7.0,339.2,0.54,13.9,29.2,"14:16:40",1
"18/08/17","14:30",0.0,28.1,39.9,1003.1,17.9,2.1,5.1,350.9,0.51,13.2,29.2,"14:29:12",1
"18/08/17","14:40",0.0,28.1,40.2,1003.1,16.2,2.6,6.0,42.0,0.47,13.4,29.4,"14:32:56",1
"18/08/17","14:50",0.0,27.6,40.8,1003.1,359.4,3.1,9.3,335.6,0.39,13.1,29.2,"14:47:36",1
"18/08/17","15:00",0.0,27.9,38.9,1002.6,14.5,3.2,7.5,359.1,0.45,12.7,29.1,"14:51:20",1
"18/08/17","15:10",0.0,28.4,38.6,1002.9,0.3,3.1,7.9,351.5,0.45,13.0,29.1,"15:05:52",1
"18/08/17","15:20",0.0,28.0,40.2,1002.6,5.8,3.1,6.7,76.5,0.42,13.3,29.2,"15:10:56",1
"18/08/17","15:30",0.0,28.5,40.7,1002.4,20.8,2.2,4.7,27.5,0.38,13.9,29.0,"15:22:48",1
"18/08/17","15:40",0.0,27.6,41.4,1001.7,2.0,2.8,5.7,8.3,0.26,13.4,28.9,"15:33:12",1
"18/08/17","15:50",0.0,27.6,39.2,1001.7,10.3,3.4,6.7,348.2,0.36,12.5,29.0,"15:46:16",1
"18/08/17","16:00",0.0,28.0,38.4,1001.7,357.6,3.1,10.8,347.6,0.32,12.6,28.9,"15:59:52",1
"18/08/17","16:10",0.0,28.1,37.9,1001.2,355.1,2.6,6.2,343.5,0.30,12.5,28.8,"16:00:32",1
"18/08/17","16:20",0.0,27.5,37.6,1001.2,5.1,3.6,8.2,359.5,0.29,11.8,28.8,"16:11:44",1
"18/08/17","16:30",0.0,27.7,38.7,1001.2,1.6,2.8,6.6,15.9,0.26,12.4,28.6,"16:21:28",1
"18/08/17","16:40",0.0,27.5,39.5,1001.7,350.2,3.1,8.0,324.3,0.24,12.6,28.2,"16:38:08",1
"18/08/17","16:50",0.0,27.4,41.4,1002.2,351.8,3.4,6.6,10.8,0.21,13.2,28.3,"16:42:16",1
"18/08/17","17:00",0.0,27.2,41.1,1001.9,3.0,2.2,4.9,49.2,0.17,12.9,28.3,"16:52:48",1
"18/08/17","17:10",0.0,26.6,42.1,1002.2,11.2,3.2,7.2,12.9,0.16,12.7,27.8,"17:01:04",1
"18/08/17","17:20",0.0,26.3,43.0,1001.9,355.0,4.0,6.0,25.2,0.13,12.8,27.9,"17:17:20",1
"18/08/17","17:30",0.0,25.9,43.9,1001.9,349.1,4.7,8.6,352.8,0.11,12.7,27.8,"17:22:08",1
"18/08/17","17:40",0.0,25.8,45.8,1001.9,351.3,3.7,8.9,355.1,0.08,13.3,27.7,"17:31:12",1
"18/08/17","17:50",0.0,25.4,47.9,1001.7,348.8,4.4,8.9,346.0,0.06,13.6,27.5,"17:40:16",1
"18/08/17","18:00",0.0,25.1,49.9,1002.4,344.1,3.5,10.3,323.5,0.04,14.0,27.3,"17:53:04",1
"18/08/17","18:10",0.0,24.6,52.3,1002.4,341.7,3.2,6.2,318.2,0.01,14.2,27.2,"18:05:52",1
"18/08/17","18:20",0.0,24.3,54.3,1002.6,351.9,2.5,5.5,346.5,0.00,14.5,27.0,"18:16:32",1
"18/08/17","18:30",0.0,24.0,56.3,1002.9,356.8,3.4,10.0,345.9,0.00,14.8,27.0,"18:25:44",1
"18/08/17","18:40",0.0,23.7,57.4,1002.4,351.1,3.5,9.1,342.6,0.00,14.8,27.0,"18:39:12",1
"18/08/17","18:50",0.0,23.5,58.5,1002.6,345.8,3.2,7.9,328.2,0.00,14.9,26.4,"18:49:20",1
"18/08/17","19:00",0.0,23.3,59.7,1003.1,346.4,3.6,8.5,345.0,0.00,15.1,26.6,"18:52:24",1
"18/08/17","19:10",0.0,23.0,61.3,1003.6,342.8,2.8,6.8,346.0,0.00,15.2,26.5,"19:09:20",1
"18/08/17","19:20",0.0,22.8,62.3,1003.6,334.6,2.7,7.0,333.5,0.00,15.3,26.3,"19:12:32",1
"18/08/17","19:30",0.0,22.6,63.2,1003.6,327.0,1.6,4.5,342.6,0.00,15.3,26.3,"19:29:12",1
"18/08/17","19:40",0.0,22.5,63.4,1003.8,303.3,1.3,3.3,4.1,0.00,15.2,25.9,"19:34:08",1
"18/08/17","19:50",0.0,22.1,65.0,1004.1,287.1,1.2,2.4,298.7,0.00,15.3,26.0,"19:42:24",1
"18/08/17","20:00",0.0,21.8,66.2,1004.3,267.3,0.6,2.4,332.9,0.00,15.3,26.0,"19:50:40",1
"18/08/17","20:10",0.0,21.7,67.6,1004.5,241.9,1.1,2.6,238.4,0.00,15.5,25.5,"20:04:08",1
"18/08/17","20:20",0.0,21.7,68.1,1004.5,266.3,1.1,2.5,240.3,0.00,15.6,25.5,"20:11:04",1
"18/08/17","20:30",0.0,21.7,66.9,1004.8,283.0,1.2,2.4,321.2,0.00,15.3,25.7,"20:26:08",1
"18/08/17","20:40",0.0,21.6,67.5,1005.0,288.0,1.1,1.7,338.4,0.00,15.4,25.5,"20:35:20",1
"18/08/17","20:50",0.0,21.5,67.8,1005.0,308.7,1.2,2.1,310.5,0.00,15.3,25.3,"20:43:04",1
"18/08/17","21:00",0.0,21.2,69.4,1005.2,343.2,1.1,4.0,332.4,0.00,15.4,25.3,"20:50:56",1
"18/08/17","21:10",0.0,20.5,72.0,1005.2,350.8,1.1,2.5,4.9,0.00,15.3,25.3,"21:02:00",1
"18/08/17","21:20",0.0,19.9,74.6,1005.7,340.6,1.0,1.7,327.3,0.00,15.3,25.0,"21:19:20",1
"18/08/17","21:30",0.0,19.5,77.3,1005.5,321.8,1.1,1.9,332.9,0.00,15.5,24.7,"21:25:28",1
"18/08/17","21:40",0.0,19.2,79.3,1006.0,317.1,1.0,2.0,330.2,0.00,15.6,24.9,"21:35:44",1
"18/08/17","21:50",0.0,18.9,81.4,1006.0,315.2,0.7,1.2,319.5,0.00,15.7,24.8,"21:47:36",1
"18/08/17","22:00",0.0,18.8,82.0,1005.7,334.8,0.8,1.7,339.0,0.00,15.7,24.8,"21:56:32",1
"18/08/17","22:10",0.0,18.8,82.7,1006.0,330.2,1.5,2.1,332.4,0.00,15.8,24.4,"22:01:28",1
"18/08/17","22:20",0.0,18.4,83.4,1006.2,308.7,1.0,1.6,351.2,0.00,15.6,24.5,"22:11:20",1
"18/08/17","22:30",0.0,18.2,84.7,1005.5,311.2,0.3,0.9,299.1,0.00,15.6,24.4,"22:29:44",1
"18/08/17","22:40",0.0,18.4,85.1,1005.5,326.5,0.7,1.8,333.0,0.00,15.9,24.5,"22:32:40",1
"18/08/17","22:50",0.0,18.6,83.2,1005.7,292.3,0.7,1.9,300.5,0.00,15.7,24.3,"22:40:02",1
"18/08/17","23:00",0.0,19.0,79.9,1005.7,289.3,1.0,1.9,334.5,0.00,15.5,24.2,"22:52:00",1
"18/08/17","23:10",0.0,18.9,79.4,1005.7,294.6,0.7,1.4,311.6,0.00,15.3,23.9,"23:00:24",1
"18/08/17","23:20",0.0,19.0,78.7,1005.5,283.5,0.8,1.2,307.3,0.00,15.3,23.9,"23:12:00",1
"18/08/17","23:30",0.0,18.7,79.0,1006.0,321.1,1.3,2.1,323.7,0.00,15.0,23.8,"23:21:28",1
"18/08/17","23:40",0.0,18.2,82.8,1005.7,317.1,1.1,2.0,335.7,0.00,15.3,23.7,"23:34:16",1
"18/08/17","23:50",0.0,18.1,84.1,1005.7,326.8,1.5,2.1,311.0,0.00,15.4,23.9,"23:40:08",1
"18/08/17","24:00",0.0,18.1,82.7,1005.7,317.1,1.2,2.7,341.0,0.00,15.2,23.8,"23:52:00",1
